[[{"header":{"parameterUnit":"m.s-1","parameterCategory":1,"la1":30.2991,"la2":30.254,"lo1":-89.0895,"lo2":-89.0444,"dy":0.0017,"dx":0.0017,"nx":28,"ny":28,"refTime":"2023-11-10T03:00:00:Z","depth":0,"parameterNumber":2,"parameterNumberName":"U-component_of_WINDS"},"data":[0,0,0,0,0,0,0,0,0,0,0,0,0,0,0,0,0,0,0,0,0,0,0,0,0,0,0,0,0,0,0,0,0,0,0,0,0,0,0,0,0,0,0,0,0,0,0,0,0,0,0,0,0,0,0,0,0,0,-4.5905,-4.5903,0,-4.5725,-4.5723,-4.5721,-4.5494,-4.5491,-4.5487,-4.5484,-4.5298,-4.5296,-4.5294,0,0,0,0,0,0,0,0,0,0,0,0,0,-4.6051,-4.6049,-4.5905,-4.5903,-4.5901,-4.5726,-4.5723,-4.5721,-4.5495,-4.5491,-4.5486,-4.5482,-4.5298,-4.5296,-4.5294,0,0,0,0,0,0,0,0,0,0,0,0,0,-4.5941,-4.6049,-4.5905,-4.5767,-4.5753,-4.5726,-4.5723,-4.572,-4.5496,-4.549,-4.5485,-4.548,-4.5299,-4.5296,-4.5294,-4.5388,0,0,-4.5287,-4.5286,0,0,0,0,0,0,0,0,-4.5948,-4.5936,-4.5789,-4.5776,-4.576,-4.5627,-4.5706,-4.5609,-4.5497,-4.5593,-4.5484,-4.5477,-4.5411,-4.5399,-4.5377,-4.5379,-4.5371,-4.5287,-4.5285,-4.5284,-4.5283,0,0,0,0,0,0,0,-4.5955,-4.5942,-4.5834,-4.5788,-4.577,-4.5713,-4.5691,-4.5686,-4.5535,-4.5585,-4.5568,-4.555,-4.5402,-4.538,-4.5371,-4.5369,-4.5287,-4.5284,-4.5283,-4.5282,-4.544,-4.5445,0,0,0,0,0,0,-4.5984,-4.595,-4.5839,-4.5828,-4.5843,-4.5715,-4.5691,-4.5675,-4.5534,-4.5508,-4.5554,-4.554,-4.5387,-4.5374,-4.5364,-4.5466,-4.5284,-4.5282,-4.5281,-4.5434,-4.5441,-4.5447,0,0,0,0,0,0,-4.5988,-4.5976,-4.5847,-4.5885,-4.5864,-4.5718,-4.5702,-4.5674,-4.5652,-4.5512,-4.5483,-4.556,-4.5382,-4.5367,-4.5384,-4.5457,-4.5281,-4.5279,-4.5427,-4.5436,-4.5444,-4.5671,0,0,0,0,0,0,-4.5993,-4.5979,-4.6014,-4.5887,-4.5863,-4.5871,-4.5707,-4.5675,-4.5649,-4.5628,-4.5509,-4.5484,-4.5377,-4.5389,-4.5382,-4.545,-4.5277,-4.542,-4.5431,-4.5441,-4.5657,-4.5687,-4.5712,0,0,0,0,0,-4.5999,-4.6084,-4.6017,-4.6005,-4.5903,-4.5876,-4.5862,-4.5737,-4.5656,-4.5689,-4.5599,-4.5488,-4.545,-4.5393,-4.5383,-4.5451,-4.5415,-4.5428,-4.544,-4.5645,-4.5681,-4.5711,0,0,0,0,0,0,-4.6223,-4.6065,-4.5989,-4.6035,-4.5971,-4.5838,-4.5876,-4.5779,-4.5736,-4.5718,-4.5563,-4.5539,-4.5575,-4.5513,-4.5453,-4.5535,-4.5416,-4.5427,-4.5575,-4.5608,-4.5635,-4.565,-4.5275,0,0,0,0,0,-4.6278,-4.6269,-4.6131,-4.6186,-4.6158,-4.6024,-4.6007,-4.5916,-4.5843,-4.5814,-4.5725,-4.5657,-4.5629,-4.5615,-4.5581,-4.5646,-4.5618,-4.5688,-4.5716,-4.5739,-4.5752,-4.5783,-4.5813,-4.5488,-4.5488,-4.5488,0,0,-4.6391,-4.6304,-4.6308,-4.6229,-4.6168,-4.6163,-4.6002,-4.6003,-4.5997,-4.5813,-4.5825,-4.5758,-4.5672,-4.5714,-4.5728,-4.5664,-4.5835,-4.5755,-4.5775,-4.5774,-4.5799,-4.583,-4.5857,-4.5497,-4.5495,-4.5494,0,0,-4.6595,-4.6528,-4.6567,-4.6509,-4.642,-4.633,-4.634,-4.6221,-4.617,-4.6179,-4.6041,-4.6032,-4.5987,-4.5932,-4.5899,-4.6083,-4.598,-4.6076,-4.6221,-4.6253,-4.6279,-4.6301,-4.6369,-4.6394,-4.6088,-4.6088,-4.6089,0,-4.6747,-4.6734,-4.6599,-4.6609,-4.6579,-4.6413,-4.6451,-4.6402,-4.6306,-4.6289,-4.6219,-4.6161,-4.6091,-4.6119,-4.6164,-4.6141,-4.6148,-4.609,-4.6286,-4.6307,-4.6325,-4.6388,-4.6414,-4.6101,-4.6099,-4.6098,-4.6097,0,-4.6926,-4.692,-4.6961,-4.6875,-4.6849,-4.6873,-4.6742,-4.6731,-4.6643,-4.6561,-4.6572,-4.6483,-4.643,-4.6428,-4.6341,-4.6444,-4.6408,-4.6315,-4.6192,-4.6371,-4.6428,-4.645,-4.6119,-4.6114,-4.6111,-4.6107,0,0,-4.7268,-4.7106,-4.7124,-4.7083,-4.6972,-4.6964,-4.6981,-4.6929,-4.6925,-4.6864,-4.6875,-4.6841,-4.6754,-4.6716,-4.6621,-4.6649,-4.6804,-4.6551,-4.6547,-4.6604,-4.6913,-4.6987,-4.7017,-4.6734,-4.6737,-4.6741,-4.6921,0,-4.7453,-4.7474,-4.7353,-4.7405,-4.7398,-4.724,-4.7255,-4.7189,-4.7112,-4.7094,-4.7007,-4.6988,-4.6873,-4.685,-4.687,-4.6781,-4.6864,-4.6765,-4.6743,-4.6744,-4.6773,-4.7046,-4.7123,-4.7298,-4.6942,-4.6946,-4.6948,0,-4.7672,-4.7625,-4.7679,-4.7566,-4.7558,-4.7574,-4.7517,-4.7502,-4.7423,-4.7365,-4.7324,-4.7215,-4.7223,-4.7105,-4.7115,-4.7051,-4.7034,-4.6989,-4.6992,-4.6987,-4.6859,-4.7051,-4.735,-4.7378,-4.6981,-4.6979,-4.6976,0,-4.7919,-4.7869,-4.7894,-4.7863,-4.7732,-4.7747,-4.7693,-4.7609,-4.7586,-4.7536,-4.752,-4.7472,-4.7446,-4.7411,-4.7292,-4.7217,-4.7317,-4.7188,-4.727,-4.7273,-4.73,-4.73,-4.7604,-4.7286,-4.7285,-4.7285,-4.7284,0,-4.814,-4.818,-4.8003,-4.802,-4.8059,-4.7918,-4.7961,-4.7891,-4.7818,-4.7817,-4.7676,-4.7679,-4.752,-4.7505,-4.7412,-4.7435,-4.7424,-4.7378,-4.7353,-4.7392,-4.7399,-4.7381,-4.7367,-4.7291,-4.729,-4.7289,-4.7288,0,-4.8424,-4.8307,-4.8325,-4.82,-4.8169,-4.8204,-4.8096,-4.8105,-4.8019,-4.8021,-4.8013,-4.7879,-4.7853,-4.7731,-4.7676,-4.7613,-4.767,-4.7619,-4.7698,-4.7682,-4.7772,-4.7766,-4.8077,-4.8111,-4.777,-4.7773,-4.7776,0,-4.8574,-4.8601,-4.8479,-4.8469,-4.8422,-4.8407,-4.8383,-4.8246,-4.8227,-4.814,-4.8161,-4.8124,-4.8088,-4.8055,-4.7952,-4.791,-4.7858,-4.797,-4.7851,-4.789,-4.7863,-4.7865,-4.7867,-4.7997,-4.8001,-4.8005,-4.8008,0,-4.8854,-4.8795,-4.8767,-4.872,-4.8696,-4.8652,-4.8598,-4.8598,-4.8445,-4.8431,-4.8405,-4.8377,-4.8322,-4.8288,-4.8229,-4.8171,-4.8066,-4.8046,-4.8063,-4.8104,-4.815,-4.8129,-4.777,-4.804,-4.8037,-4.8034,-4.8032,-4.8031,-4.9077,-4.9094,-4.9011,-4.8985,-4.8931,-4.8885,-4.8888,-4.8803,-4.8779,-4.8725,-4.8644,-4.8629,-4.8549,-4.8458,-4.841,-4.8396,-4.8335,-4.8359,-4.8366,-4.8375,-4.8396,-4.8151,-4.8384,-4.8383,-4.8382,-4.8381,-4.838,0,-4.9352,-4.9291,-4.9268,-4.9199,-4.9179,-4.908,-4.9016,-4.9006,-4.8995,-4.8929,-4.8897,-4.8867,-4.8834,-4.8729,-4.8685,-4.8694,-4.8644,-4.8687,-4.8687,-4.8676,-4.8451,-4.8442,-4.8728,-4.8728,-4.8728,-4.8728,-4.8728,-4.8728,-4.9493,-4.9517,-4.9449,-4.9445,-4.9382,-4.9368,-4.934,-4.9297,-4.9245,-4.9218,-4.919,-4.9122,-4.9041,-4.899,-4.8955,-4.8925,-4.8916,-4.8977,-4.8931,-4.8724,-4.8691,-4.8659,-4.865,-4.8975,-4.8975,-4.9156,-4.9158,-4.9159]},{"header":{"parameterUnit":"m.s-1","parameterCategory":1,"la1":30.2991,"la2":30.254,"lo1":-89.0895,"lo2":-89.0444,"dy":0.0017,"dx":0.0017,"nx":28,"ny":28,"refTime":"2023-11-10T03:00:00:Z","depth":0,"parameterNumber":3,"parameterNumberName":"V-component_of_WINDS"},"data":[0,0,0,0,0,0,0,0,0,0,0,0,0,0,0,0,0,0,0,0,0,0,0,0,0,0,0,0,0,0,0,0,0,0,0,0,0,0,0,0,0,0,0,0,0,0,0,0,0,0,0,0,0,0,0,0,0,0,-6.0093,-6.0092,0,-6.0024,-6.0023,-6.0022,-5.9839,-5.9835,-5.9831,-5.9827,-5.9761,-5.9763,-5.9765,0,0,0,0,0,0,0,0,0,0,0,0,0,-6.007,-6.0071,-6.0093,-6.0092,-6.0091,-6.0024,-6.0023,-6.0022,-5.9839,-5.9835,-5.983,-5.9825,-5.9761,-5.9763,-5.9765,0,0,0,0,0,0,0,0,0,0,0,0,0,-6.0049,-6.0072,-6.0093,-5.9992,-5.9982,-6.0024,-6.0023,-6.0022,-5.984,-5.9835,-5.9829,-5.9823,-5.976,-5.9763,-5.9766,-5.9902,0,0,-5.9774,-5.9776,0,0,0,0,0,0,0,0,-6.005,-6.005,-6.0007,-5.9999,-5.9988,-5.9934,-5.999,-5.9982,-5.9842,-5.9894,-5.9827,-5.982,-5.9824,-5.9821,-5.9821,-5.9898,-5.9896,-5.9775,-5.9776,-5.9778,-5.9778,0,0,0,0,0,0,0,-6.0052,-6.0052,-6.0065,-6.0007,-5.9995,-5.9951,-5.9941,-5.9988,-5.9893,-5.9889,-5.9876,-5.987,-5.9817,-5.9819,-5.9818,-5.9895,-5.9775,-5.9777,-5.9779,-5.978,-6.0079,-6.0085,0,0,0,0,0,0,-6.0067,-6.0054,-6.0068,-6.0063,-6.0005,-5.9956,-5.9945,-5.9957,-5.9892,-5.9876,-5.9875,-5.9862,-5.9817,-5.9815,-5.9815,-5.9969,-5.9778,-5.978,-5.9782,-6.0073,-6.0081,-6.0087,0,0,0,0,0,0,-6.0067,-6.007,-6.007,-6.0055,-6.0051,-5.9963,-5.9977,-5.9959,-5.996,-5.9881,-5.9864,-5.9894,-5.9812,-5.9811,-5.9881,-5.9965,-5.9782,-5.9784,-6.0066,-6.0075,-6.0084,-6.028,0,0,0,0,0,0,-6.0067,-6.0071,-6.0121,-6.0057,-6.0053,-6.0137,-5.9983,-5.9962,-5.9965,-5.9947,-5.9894,-5.988,-5.9807,-5.9878,-5.9884,-5.9965,-5.9786,-6.0058,-6.007,-6.0081,-6.0266,-6.0295,-6.032,0,0,0,0,0,-6.0067,-6.018,-6.0125,-6.0127,-6.0114,-6.0142,-6.0139,-6.0052,-5.9973,-6.0022,-5.9972,-5.9882,-5.9955,-5.9886,-5.9892,-5.9976,-6.0052,-6.0067,-6.008,-6.0254,-6.0289,-6.0319,0,0,0,0,0,0,-6.0259,-6.017,-6.0108,-6.0203,-6.0181,-6.0111,-6.0171,-6.0093,-6.0095,-6.0078,-5.9971,-5.9961,-6.0046,-6.0017,-5.9943,-6.0103,-5.9989,-6.0005,-6.0119,-6.0152,-6.0179,-6.0184,-5.9789,0,0,0,0,0,-6.0312,-6.0341,-6.0262,-6.0354,-6.0346,-6.0262,-6.027,-6.0205,-6.0179,-6.0169,-6.0123,-6.0102,-6.012,-6.0134,-6.0147,-6.0261,-6.0247,-6.0321,-6.0348,-6.0371,-6.0386,-6.0444,-6.0476,-6.0133,-6.0133,-6.0133,0,0,-6.0422,-6.0377,-6.0403,-6.0392,-6.0367,-6.04,-6.0255,-6.0297,-6.0321,-6.0176,-6.0238,-6.0204,-6.0174,-6.0266,-6.0305,-6.0245,-6.0477,-6.0389,-6.0407,-6.041,-6.0462,-6.0494,-6.0523,-6.0143,-6.0141,-6.014,0,0,-6.064,-6.0609,-6.0682,-6.066,-6.0623,-6.0566,-6.0584,-6.0525,-6.0496,-6.0556,-6.0448,-6.0476,-6.0509,-6.0492,-6.0487,-6.0698,-6.0616,-6.0706,-6.0847,-6.0905,-6.0932,-6.0956,-6.1031,-6.1059,-6.0721,-6.0721,-6.0721,0,-6.0782,-6.0827,-6.073,-6.0778,-6.0776,-6.0645,-6.0718,-6.0702,-6.0673,-6.0675,-6.0609,-6.0647,-6.0617,-6.0704,-6.0755,-6.0756,-6.0773,-6.0711,-6.0936,-6.0958,-6.0979,-6.1049,-6.1078,-6.0732,-6.0731,-6.073,-6.0729,0,-6.1003,-6.1036,-6.11,-6.1072,-6.1078,-6.1139,-6.1052,-6.107,-6.1004,-6.0954,-6.1018,-6.0977,-6.0978,-6.0994,-6.0931,-6.1072,-6.1036,-6.0955,-6.0837,-6.1024,-6.1089,-6.1115,-6.0748,-6.0744,-6.0741,-6.0738,0,0,-6.1341,-6.1258,-6.1283,-6.1268,-6.1218,-6.1242,-6.1298,-6.1297,-6.1314,-6.1299,-6.1343,-6.1374,-6.1297,-6.1293,-6.1226,-6.1277,-6.1447,-6.1189,-6.1186,-6.1238,-6.1599,-6.1661,-6.1694,-6.1391,-6.1396,-6.14,-6.1602,0,-6.1546,-6.1634,-6.1548,-6.1653,-6.1682,-6.1557,-6.1605,-6.1581,-6.1536,-6.1555,-6.1505,-6.1528,-6.1426,-6.1422,-6.1467,-6.1417,-6.1518,-6.1401,-6.1432,-6.1435,-6.1444,-6.1728,-6.1793,-6.1986,-6.1626,-6.1631,-6.1634,0,-6.1798,-6.1791,-6.19,-6.1841,-6.185,-6.1895,-6.1887,-6.1907,-6.1877,-6.184,-6.1835,-6.1753,-6.1804,-6.169,-6.1759,-6.1682,-6.1689,-6.1667,-6.1672,-6.1672,-6.1546,-6.1736,-6.2045,-6.2074,-6.1672,-6.1669,-6.1667,0,-6.2033,-6.2052,-6.2118,-6.211,-6.2044,-6.2078,-6.2053,-6.2016,-6.2021,-6.2015,-6.2017,-6.2019,-6.202,-6.2023,-6.1944,-6.1868,-6.2024,-6.1903,-6.1996,-6.1998,-6.2035,-6.2034,-6.235,-6.204,-6.204,-6.2039,-6.2039,0,-6.2271,-6.2343,-6.2223,-6.2264,-6.234,-6.2241,-6.2319,-6.2281,-6.2249,-6.2282,-6.2174,-6.2208,-6.2102,-6.2124,-6.2064,-6.213,-6.2132,-6.2104,-6.2087,-6.2114,-6.2118,-6.2118,-6.2103,-6.2047,-6.2045,-6.2044,-6.2042,0,-6.2547,-6.247,-6.2534,-6.2466,-6.245,-6.251,-6.2451,-6.2487,-6.2434,-6.2477,-6.2481,-6.2399,-6.242,-6.2342,-6.235,-6.2309,-6.2408,-6.2369,-6.2418,-6.2406,-6.2504,-6.2496,-6.2832,-6.2871,-6.2536,-6.254,-6.2542,0,-6.2705,-6.2756,-6.2693,-6.2705,-6.2685,-6.2708,-6.2712,-6.2616,-6.2625,-6.2594,-6.2634,-6.2645,-6.2649,-6.2688,-6.263,-6.2636,-6.2596,-6.2713,-6.2596,-6.2622,-6.2598,-6.2596,-6.2601,-6.2738,-6.2742,-6.2746,-6.2748,0,-6.2992,-6.2951,-6.296,-6.2956,-6.2963,-6.2956,-6.2941,-6.2959,-6.2855,-6.2871,-6.2889,-6.2893,-6.29,-6.2913,-6.2906,-6.2881,-6.2799,-6.2786,-6.2807,-6.2835,-6.2862,-6.2849,-6.2485,-6.2778,-6.2775,-6.2773,-6.2772,-6.277,-6.3213,-6.3253,-6.3214,-6.3228,-6.3206,-6.3195,-6.3225,-6.3175,-6.3188,-6.3185,-6.3128,-6.3158,-6.3126,-6.3108,-6.3091,-6.3114,-6.306,-6.3092,-6.31,-6.3109,-6.3126,-6.2858,-6.3113,-6.3112,-6.3111,-6.311,-6.311,0,-6.3495,-6.3464,-6.3477,-6.3459,-6.347,-6.3389,-6.3368,-6.3384,-6.3411,-6.3387,-6.3392,-6.3414,-6.3426,-6.3369,-6.3373,-6.3402,-6.3365,-6.3407,-6.3404,-6.34,-6.3175,-6.3155,-6.3437,-6.3437,-6.3437,-6.3437,-6.3437,-6.3437,-6.3644,-6.3706,-6.366,-6.3711,-6.3679,-6.3706,-6.3701,-6.3691,-6.3671,-6.3699,-6.3708,-6.3669,-6.3632,-6.3633,-6.3641,-6.3623,-6.363,-6.3686,-6.3656,-6.3447,-6.3415,-6.3385,-6.3366,-6.3688,-6.3688,-6.3879,-6.3881,-6.3882]}]]